Regional Weather Roundup
Issued by NWS Cleveland, OH

Home | Current Version | Previous Version | Text Only | Print | Product List | Glossary Off
Versions: 1 2 3 4 5 6 7 8 9 10 11 12 13 14 15 16 17 18 19 20 21 22 23 24 25 26 27 28 29 30 31 32 33 34 35 36 37 38 39 40 41 42 43 44 45 46 47 48 49 50

000
ASUS41 KCLE 230112
RWRCLE
OHIO REGIONAL WEATHER ROUNDUP
NATIONAL WEATHER SERVICE WILMINGTON, OH
800 PM EST SUN JAN 22 2017

NOTE: "FAIR" INDICATES FEW OR NO CLOUDS BELOW 12,000 FEET WITH NO
SIGNIFICANT WEATHER AND/OR OBSTRUCTIONS TO VISIBILITY.

OHZ001>008-015>018-024>027-034-035-043-044-230200-
   NORTHWEST OHIO

CITY           SKY/WX    TMP DP  RH WIND       PRES   REMARKS
DEFIANCE       FOG       47  47 100 NE13      29.57F VSB 1/2
FINDLAY        CLOUDY    47  44  90 NE13      29.55S FOG
TOLEDO EXPRESS CLOUDY    45  45 100 E14       29.59S FOG
TOLEDO EXEC    FOG       41  41 100 NE10      29.61S VSB 1/4
LIMA           FAIR      50  48  93 NE9       29.54S
$$

OHZ009>014-019>023-028>033-038-089-230200-
   NORTHEAST OHIO

CITY           SKY/WX    TMP DP  RH WIND       PRES   REMARKS
CLE-HOPKINS    CLOUDY    46  40  79 N5        29.60S
CLE-LAKEFRONT  CLOUDY    38  37  97 NE12      29.58S
CUY CO. ARPT   MOCLDY    50  48  93 NE8       29.58F
LORAIN-ELYRIA  MOCLDY    45  41  86 E3        29.59R
ASHTABULA      CLOUDY    42  41  96 NE5       29.61S
AKRON-CANTON   CLOUDY    54  49  83 NE9       29.56S
WOOSTER        CLOUDY    52  47  83 NE9       29.56R
MANSFIELD      FAIR      54  49  83 NE8       29.55S
YOUNGSTOWN     LGT RAIN  54  47  77 E6        29.59S
$$

OHZ042-051>053-060>062-070>072-077>081-230200-
  SOUTHWEST OHIO

CITY           SKY/WX    TMP DP  RH WIND       PRES   REMARKS
CINC-COVINGTON CLOUDY    58  48  69 NE16      29.44F
CINC-LUNKEN    CLOUDY    59  50  72 NE12      29.46R
HAMILTON       LGT RAIN  57  50  77 N7        29.48S
DAYTON         CLOUDY    54  47  77 NE9       29.51R
WRIGHT-PAT AFB CLOUDY    56  49  76 NE12      29.49S
DAYTON GENERAL LGT RAIN  56  49  77 NE13      29.48R
WILMINGTON     CLOUDY    54  49  83 NE10      29.46F
$$

OHZ036-037-039>041-045>050-054>059-063>069-073>076-082>088-230200-
  CENTRAL AND SOUTHEAST OHIO

CITY           SKY/WX    TMP DP  RH WIND       PRES   REMARKS
COLUMBUS       CLOUDY    60  47  61 NE13      29.49S
OSU AIRPORT    CLOUDY    57  50  77 NE9       29.49S
BOLTON FIELD   CLOUDY    58  48  68 NE8       29.50R
RICKENBACK AFB   N/A     56  48  74 NE12      29.48S
NEWARK         MOCLDY    58  47  66 NE9       29.50S
MARION         FAIR      52  49  89 NE10      29.54R
LANCASTER      CLOUDY    57  48  72 NE9       29.49S
ZANESVILLE     FAIR      58  45  62 NE9       29.50S
NEW PHILLY     CLOUDY    57  49  74 NE7       29.54S
$$




USA.gov is the U.S. government's official web portal to all federal, state and local government web resources and services.